• MPC Preparation (Info)

  • MPEC 2006-B06 : 2005 EB299

    The following Minor Planet Electronic Circular may be linked-to from your own Web pages, but must not otherwise be redistributed electronically.

    A form allowing access to any MPEC is at the bottom of this page.


    Read MPEC 2006-B05 Read MPEC 2006-B07


    M.P.E.C. 2006-B06                                Issued 2006 Jan. 18, 23:27 UT
    
         The Minor Planet Electronic Circulars contain information on unusual
             minor planets and routine data on comets.  They are published
       on behalf of Commission 20 of the International Astronomical Union by the
              Minor Planet Center, Smithsonian Astrophysical Observatory,
                              Cambridge, MA 02138, U.S.A.
    
                      Supported in part by the Brinson Foundation
                      Supported in part by the TABASGO Foundation
                 Prepared using the Tamkin Foundation Computer Network
    
                                  MPC@CFA.HARVARD.EDU
              URL http://cfa-www.harvard.edu/iau/mpc.html  ISSN 1523-6714
    
                                      2005 EB299
    
    Additional Observations:
         K05ET9B .C2005 12 01.40876 10 28 04.86 +09 51 06.3          22.0 R EB006695
         K05ET9B .C2005 12 01.45052 10 28 04.92 +09 51 05.9                 EB006695
         K05ET9B .C2005 12 02.42200 10 28 06.20 +09 50 58.6                 EB006695
    
    Observer details:
    695 Kitt Peak.  Observers L. H. Wasserman, R. L. Millis.  Measurers
        L. H. Wasserman, R. L. Millis, M. W. Buie.  4-m f/2.8 reflector + 8K CCD
        + prime-focus corrector.
    
    Orbital elements:
    2005 EB299
    Epoch 2006 Mar. 6.0 TT = JDT 2453800.5                  MPC
    M 356.02006              (2000.0)            P               Q
    n   0.00258976     Peri.  176.62093     -0.97883424     -0.20464659
    a  52.5165225      Node   351.56960     +0.18747533     -0.89307377
    e   0.5150102      Incl.    0.70978     +0.08207632     -0.40067321
    P 381              H    8.3           G   0.15           U   4
    Residuals in seconds of arc
    050311 695  0.1-  0.1+    050412 695  0.0   0.1+    051201 695  0.1-  0.1+
    050311 695  0.1+  0.0     050413 695  0.1+  0.0     051201 695  0.0   0.0
    050312 695  0.0   0.1-    050606 304  0.1-  0.1-    051202 695  0.1+  0.1-
    050412 695  0.1-  0.1-    050607 304  0.1+  0.0
    
    Ephemeris:
    2005 EB299               a,e,i = 52.52, 0.52, 1                  q = 25.470
    Date    TT    R. A. (2000) Decl.     Delta      r     Elong.  Phase     V
    2006 01 15    10 26.70   +09 59.2   25.003   25.763   139.9     1.4    22.5
    2006 01 25    10 25.82   +10 04.3   24.900   25.759   150.3     1.1    22.5
    2006 02 04    10 24.81   +10 10.1   24.823   25.756   160.7     0.7    22.5
    2006 02 14    10 23.70   +10 16.5   24.776   25.752   171.1     0.3    22.4
    2006 02 24    10 22.54   +10 23.0   24.759   25.749   178.5     0.1    22.3
    2006 03 06    10 21.39   +10 29.5   24.773   25.745   168.1     0.5    22.4
    2006 03 16    10 20.29   +10 35.7   24.817   25.741   157.9     0.8    22.5
    2006 03 26    10 19.30   +10 41.2   24.889   25.738   147.7     1.2    22.5
    2006 04 05    10 18.45   +10 45.9   24.987   25.734   137.6     1.5    22.5
    2006 04 15    10 17.78   +10 49.6   25.107   25.731   127.6     1.8    22.6
    2006 04 25    10 17.32   +10 52.1   25.245   25.728   117.7     2.0    22.6
    2006 05 05    10 17.08   +10 53.3   25.396   25.724   107.9     2.1    22.6
    2006 05 15    10 17.08   +10 53.1   25.556   25.721    98.3     2.2    22.6
    2006 05 25    10 17.32   +10 51.5   25.720   25.717    88.7     2.3    22.7
    2006 06 04    10 17.81   +10 48.7   25.884   25.714    79.2     2.2    22.7
    2006 06 14    10 18.52   +10 44.5   26.043   25.711    69.9     2.1    22.7
    2006 06 24    10 19.45   +10 39.1   26.192   25.707    60.6     2.0    22.7
    
    Gareth V. Williams           (C) Copyright 2006 MPC           M.P.E.C. 2006-B06
    

    Read MPEC 2006-B05 Read MPEC 2006-B07


    MPEC number:

    Enter an MPEC number in one of the following forms:

    • 1997-B01 (the full form)
    • J97B01 (the packed version of the full form)
    • B01 (the abbreviated form)